Total_Precipitation_Accumulation
0.51 0.40 0.44 0.44 0.34 0.42 0.68 0.68 0.67 0.41 0.29 0.29 0.26 0.22 0.17 0.15 0.12 0.10 0.09 0.08 0.07 0.08 0.08 0.09 0.08 0.07 0.07 0.08 0.09 0.11 0.13 0.15 0.18 0.20 0.22 0.22 0.22 0.23 0.24 0.23 0.23 0.26 0.25 0.25
0.52 0.32 0.32 0.35 0.28 0.33 0.41 0.42 0.47 0.38 0.33 0.23 0.22 0.19 0.17 0.17 0.14 0.10 0.10 0.08 0.07 0.07 0.08 0.09 0.08 0.08 0.08 0.08 0.09 0.10 0.12 0.15 0.17 0.19 0.22 0.23 0.24 0.23 0.23 0.24 0.25 0.28 0.28 0.29
0.46 0.25 0.33 0.38 0.30 0.35 0.37 0.34 0.40 0.43 0.35 0.21 0.21 0.19 0.19 0.18 0.14 0.11 0.10 0.08 0.06 0.06 0.07 0.07 0.07 0.09 0.10 0.10 0.11 0.13 0.14 0.14 0.16 0.22 0.25 0.24 0.26 0.29 0.29 0.30 0.34 0.40 0.43 0.43
0.46 0.33 0.38 0.25 0.18 0.24 0.28 0.31 0.32 0.30 0.23 0.17 0.18 0.20 0.20 0.18 0.16 0.12 0.09 0.07 0.05 0.05 0.05 0.05 0.06 0.07 0.08 0.08 0.11 0.16 0.21 0.22 0.23 0.24 0.29 0.32 0.32 0.36 0.38 0.40 0.47 0.53 0.56 0.55
0.48 0.38 0.23 0.13 0.10 0.16 0.25 0.29 0.19 0.17 0.15 0.11 0.12 0.14 0.14 0.15 0.14 0.12 0.10 0.08 0.06 0.06 0.06 0.06 0.07 0.08 0.09 0.09 0.11 0.18 0.22 0.27 0.26 0.29 0.33 0.37 0.43 0.47 0.48 0.49 0.52 0.53 0.51 0.48
0.47 0.40 0.24 0.13 0.06 0.07 0.20 0.35 0.14 0.10 0.10 0.10 0.11 0.16 0.15 0.13 0.13 0.11 0.10 0.12 0.10 0.09 0.09 0.09 0.11 0.14 0.16 0.17 0.20 0.23 0.23 0.28 0.29 0.32 0.36 0.41 0.46 0.52 0.55 0.54 0.51 0.44 0.39 0.33
0.37 0.33 0.16 0.08 0.04 0.07 0.28 0.41 0.16 0.11 0.10 0.11 0.13 0.14 0.12 0.10 0.09 0.10 0.10 0.13 0.16 0.18 0.19 0.20 0.23 0.24 0.25 0.26 0.27 0.29 0.29 0.33 0.35 0.36 0.39 0.43 0.45 0.45 0.44 0.41 0.36 0.30 0.25 0.20
0.20 0.26 0.17 0.09 0.11 0.18 0.24 0.16 0.12 0.12 0.12 0.15 0.17 0.15 0.12 0.11 0.09 0.09 0.12 0.14 0.18 0.22 0.25 0.27 0.29 0.30 0.31 0.33 0.33 0.32 0.32 0.34 0.36 0.36 0.35 0.32 0.31 0.31 0.28 0.24 0.23 0.18 0.15 0.13
0.14 0.17 0.14 0.12 0.16 0.18 0.18 0.14 0.12 0.11 0.11 0.14 0.20 0.20 0.18 0.15 0.12 0.10 0.11 0.14 0.16 0.19 0.20 0.22 0.26 0.31 0.34 0.35 0.33 0.30 0.28 0.28 0.28 0.26 0.23 0.21 0.18 0.17 0.16 0.15 0.15 0.15 0.13 0.11
0.12 0.12 0.11 0.12 0.14 0.13 0.13 0.12 0.11 0.11 0.12 0.13 0.15 0.19 0.18 0.17 0.15 0.15 0.14 0.12 0.12 0.14 0.15 0.15 0.17 0.21 0.25 0.26 0.25 0.22 0.19 0.18 0.17 0.16 0.16 0.14 0.11 0.10 0.10 0.10 0.10 0.11 0.11 0.09
0.11 0.09 0.08 0.07 0.07 0.07 0.07 0.07 0.08 0.10 0.10 0.12 0.12 0.15 0.17 0.17 0.15 0.15 0.15 0.13 0.11 0.10 0.10 0.10 0.11 0.12 0.16 0.17 0.16 0.15 0.13 0.11 0.10 0.11 0.13 0.12 0.11 0.11 0.11 0.11 0.12 0.12 0.11 0.10
0.13 0.08 0.09 0.08 0.05 0.04 0.04 0.04 0.05 0.07 0.09 0.09 0.10 0.14 0.15 0.14 0.13 0.13 0.14 0.15 0.11 0.10 0.10 0.09 0.09 0.10 0.10 0.12 0.13 0.13 0.11 0.11 0.11 0.10 0.10 0.12 0.12 0.12 0.15 0.16 0.17 0.17 0.15 0.13
0.10 0.07 0.06 0.05 0.04 0.04 0.03 0.03 0.03 0.04 0.06 0.07 0.07 0.09 0.11 0.12 0.13 0.12 0.12 0.12 0.10 0.10 0.10 0.09 0.10 0.11 0.10 0.11 0.11 0.12 0.11 0.11 0.12 0.13 0.12 0.13 0.13 0.11 0.11 0.13 0.15 0.15 0.15 0.15
0.05 0.04 0.04 0.03 0.04 0.04 0.03 0.03 0.03 0.03 0.04 0.05 0.07 0.07 0.08 0.10 0.12 0.13 0.13 0.14 0.13 0.11 0.10 0.10 0.10 0.09 0.08 0.09 0.10 0.12 0.13 0.13 0.12 0.13 0.14 0.14 0.14 0.13 0.11 0.11 0.11 0.11 0.12 0.15
0.04 0.04 0.04 0.03 0.03 0.03 0.04 0.03 0.03 0.04 0.04 0.05 0.06 0.07 0.08 0.10 0.13 0.15 0.14 0.13 0.13 0.12 0.10 0.09 0.10 0.09 0.08 0.07 0.08 0.10 0.12 0.12 0.12 0.13 0.14 0.15 0.15 0.16 0.13 0.11 0.11 0.10 0.10 0.12
0.05 0.04 0.05 0.04 0.04 0.04 0.04 0.04 0.04 0.05 0.06 0.06 0.08 0.09 0.10 0.11 0.14 0.15 0.15 0.14 0.13 0.12 0.11 0.10 0.09 0.08 0.08 0.08 0.09 0.09 0.10 0.13 0.13 0.12 0.13 0.14 0.14 0.15 0.15 0.13 0.12 0.10 0.09 0.09
0.07 0.06 0.06 0.06 0.05 0.05 0.05 0.05 0.05 0.05 0.06 0.07 0.09 0.11 0.11 0.12 0.14 0.16 0.16 0.15 0.14 0.13 0.12 0.10 0.09 0.08 0.08 0.08 0.09 0.10 0.11 0.12 0.15 0.13 0.12 0.13 0.14 0.14 0.15 0.15 0.14 0.11 0.09 0.11
0.08 0.09 0.09 0.09 0.09 0.08 0.07 0.07 0.07 0.07 0.07 0.08 0.08 0.08 0.10 0.12 0.14 0.15 0.15 0.14 0.14 0.14 0.12 0.11 0.10 0.10 0.09 0.09 0.10 0.11 0.12 0.12 0.12 0.12 0.12 0.12 0.14 0.14 0.13 0.13 0.13 0.12 0.10 0.12
0.08 0.11 0.12 0.11 0.10 0.10 0.10 0.09 0.10 0.10 0.09 0.09 0.10 0.10 0.11 0.12 0.12 0.14 0.15 0.15 0.14 0.14 0.14 0.13 0.15 0.13 0.11 0.12 0.14 0.12 0.12 0.12 0.13 0.13 0.14 0.16 0.16 0.13 0.11 0.11 0.11 0.11 0.11 0.11
0.12 0.13 0.15 0.15 0.14 0.13 0.13 0.12 0.11 0.11 0.11 0.11 0.11 0.11 0.12 0.13 0.13 0.13 0.14 0.14 0.14 0.15 0.15 0.16 0.15 0.13 0.12 0.14 0.17 0.13 0.12 0.13 0.15 0.16 0.16 0.16 0.15 0.13 0.12 0.12 0.12 0.12 0.12 0.12
0.14 0.15 0.16 0.17 0.17 0.17 0.16 0.15 0.13 0.12 0.11 0.10 0.11 0.11 0.11 0.12 0.12 0.12 0.12 0.13 0.13 0.13 0.13 0.16 0.15 0.13 0.14 0.17 0.20 0.16 0.14 0.15 0.16 0.16 0.17 0.17 0.17 0.16 0.16 0.15 0.14 0.14 0.13 0.13
0.15 0.15 0.16 0.17 0.16 0.17 0.16 0.14 0.13 0.13 0.12 0.11 0.11 0.10 0.09 0.10 0.11 0.11 0.11 0.11 0.12 0.14 0.13 0.12 0.12 0.15 0.19 0.22 0.19 0.16 0.16 0.17 0.17 0.18 0.18 0.18 0.18 0.18 0.18 0.17 0.17 0.17 0.16 0.16
0.15 0.14 0.14 0.14 0.14 0.15 0.14 0.13 0.13 0.13 0.13 0.12 0.11 0.11 0.10 0.10 0.11 0.11 0.11 0.10 0.10 0.11 0.10 0.10 0.13 0.17 0.20 0.19 0.16 0.15 0.17 0.18 0.18 0.18 0.18 0.18 0.19 0.19 0.20 0.20 0.19 0.18 0.18 0.17
0.12 0.11 0.11 0.11 0.12 0.12 0.12 0.13 0.13 0.12 0.11 0.11 0.10 0.10 0.10 0.10 0.10 0.10 0.09 0.10 0.11 0.11 0.10 0.11 0.14 0.16 0.17 0.14 0.14 0.15 0.16 0.17 0.18 0.18 0.19 0.20 0.20 0.20 0.20 0.19 0.18 0.16 0.16 0.17
0.09 0.09 0.09 0.09 0.09 0.09 0.10 0.11 0.11 0.11 0.11 0.10 0.09 0.09 0.09 0.09 0.09 0.09 0.09 0.09 0.09 0.10 0.09 0.10 0.12 0.14 0.14 0.12 0.13 0.14 0.15 0.16 0.18 0.19 0.19 0.19 0.19 0.19 0.18 0.18 0.17 0.16 0.15 0.14
0.06 0.06 0.06 0.07 0.07 0.07 0.08 0.10 0.12 0.11 0.09 0.10 0.10 0.09 0.08 0.08 0.08 0.08 0.09 0.09 0.10 0.11 0.09 0.09 0.11 0.13 0.13 0.12 0.13 0.14 0.14 0.15 0.16 0.15 0.15 0.16 0.17 0.18 0.17 0.16 0.15 0.15 0.14 0.12
0.04 0.04 0.04 0.05 0.06 0.06 0.07 0.08 0.10 0.12 0.11 0.10 0.09 0.09 0.08 0.08 0.08 0.09 0.09 0.09 0.10 0.10 0.10 0.10 0.11 0.12 0.13 0.13 0.13 0.13 0.13 0.13 0.13 0.13 0.14 0.15 0.15 0.16 0.15 0.15 0.14 0.13 0.13 0.12